N3PL Weather Reports


Display with metric or nautical units.
time (UTC)temp
F
wind
direction
speed
MPH
gust
MPH
rain 1hr
in
rain 24hr
in
rain mn
in
humidity
%
barometer
mb
20260906021010 64 270 0.0 0.0 0.00 0.00 0.11 90 1007.6
20260906020606 64 270 0.0 0.0 0.00 0.00 0.11 89 1007.6
20260906020002 65 270 0.0 0.0 0.00 0.00 0.11 89 1007.6
20260906015504 65 270 0.0 0.0 0.00 0.00 0.11 89 1007.6
20260906015008 65 270 0.0 0.0 0.00 0.00 0.11 89 1007.6
20260906014609 65 270 0.0 0.0 0.00 0.00 0.11 88 1007.6
20260906014106 65 270 0.0 0.0 0.00 0.00 0.11 88 1007.5
20260906013506 65 270 0.0 0.0 0.00 0.00 0.11 88 1007.5
20260906013014 65 270 0.0 0.0 0.00 0.00 0.11 88 1007.5
20260906012604 65 270 0.0 0.0 0.00 0.00 0.11 88 1007.2
20260906012004 66 270 0.0 0.0 0.00 0.00 0.11 87 1007.2
20260906011600 66 270 0.0 0.0 0.00 0.00 0.11 87 1007.2
20260906011052 66 270 0.0 0.0 0.00 0.00 0.11 87 1007.0
20260906010559 66 270 0.0 0.0 0.00 0.00 0.11 86 1007.0
20260906010120 66 270 0.0 0.0 0.00 0.00 0.11 85 1007.0
20260906005552 66 270 0.0 0.0 0.00 0.00 0.11 85 1007.0
20260906005059 66 270 0.0 0.0 0.00 0.00 0.11 85 1007.0
20260906004607 67 270 0.0 0.0 0.00 0.00 0.11 84 1007.0
20260906004107 67 270 0.0 0.0 0.00 0.00 0.10 84 1006.9
20260906003502 67 270 0.0 0.0 0.00 0.00 0.10 83 1006.9
20260906003004 67 270 0.0 0.0 0.00 0.00 0.10 83 1006.9
20260906002507 67 270 0.0 0.0 0.00 0.00 0.10 82 1006.6
20260906002011 68 270 0.0 0.0 0.00 0.00 0.10 82 1006.6
20260906001612 68 270 0.0 0.0 0.00 0.00 0.10 82 1006.6
20260906001003 68 270 0.0 0.0 0.00 0.00 0.10 81 1006.4
20260906000511 69 270 0.0 0.0 0.00 0.00 0.10 80 1006.4
20260906000009 69 270 0.0 0.0 0.00 0.00 0.10 79 1006.4
20260905235606 69 270 0.0 0.0 0.00 0.00 0.10 77 1006.3
20260905235106 69 270 0.0 0.0 0.00 0.00 0.10 78 1006.3
20260905234503 70 270 0.0 0.0 0.00 0.00 0.10 76 1006.3
20260905234006 70 270 0.0 0.0 0.00 0.00 0.10 76 1005.9
20260905233510 71 270 0.0 0.0 0.00 0.00 0.10 76 1005.9
20260905233104 71 270 0.0 0.0 0.00 0.00 0.10 75 1005.9
20260905232606 71 270 0.0 0.0 0.00 0.00 0.10 75 1006.0
20260905232003 72 270 0.0 0.0 0.00 0.00 0.10 71 1006.0
20260905231507 72 270 0.0 0.0 0.00 0.00 0.10 69 1006.0
20260905231100 72 270 0.0 0.0 0.00 0.00 0.10 69 1006.1
20260905230605 72 270 0.0 0.0 0.00 0.00 0.10 67 1006.1
20260905230005 72 270 0.0 0.0 0.00 0.00 0.10 68 1006.1
20260905225559 73 270 0.0 0.0 0.00 0.00 0.10 68 1006.1
20260905225103 73 270 0.0 0.0 0.00 0.00 0.10 67 1006.1
20260905224605 73 270 0.0 0.0 0.00 0.00 0.10 66 1006.1
20260905224003 73 270 0.0 0.0 0.00 0.00 0.10 66 1006.1
20260905223505 74 270 0.0 0.0 0.00 0.00 0.10 67 1006.1
20260905223058 74 270 0.0 0.0 0.00 0.00 0.10 65 1006.1
20260905222603 74 270 0.0 0.0 0.00 0.00 0.10 66 1005.9
20260905222007 74 270 0.0 0.0 0.00 0.00 0.10 66 1005.9
20260905221600 75 270 0.0 0.0 0.00 0.00 0.10 65 1005.9
20260905221107 75 270 0.0 0.0 0.00 0.00 0.10 64 1005.7
20260905220504 75 270 0.0 0.0 0.00 0.00 0.09 63 1005.7
20260905220104 75 270 0.0 0.0 0.00 0.00 0.09 63 1005.7
20260905215607 75 270 0.0 0.0 0.00 0.00 0.09 62 1005.8
20260905215005 75 270 0.0 0.0 0.00 0.00 0.09 61 1005.8
20260905214507 75 270 0.0 0.0 0.00 0.00 0.09 60 1005.8
20260905214010 75 270 0.0 0.0 0.00 0.00 0.09 59 1005.8
20260905213604 76 270 0.0 0.0 0.00 0.00 0.09 59 1005.8
20260905213106 76 270 0.0 0.0 0.00 0.00 0.09 58 1005.8
20260905212504 76 270 0.0 0.0 0.00 0.00 0.09 58 1005.7
20260905212006 76 270 0.0 0.0 0.00 0.00 0.09 54 1005.7
20260905211559 76 196 0.0 0.0 0.00 0.00 0.09 56 1005.7
20260905211104 76 257 0.0 0.0 0.00 0.00 0.09 61 1005.6
20260905210605 76 257 0.0 0.0 0.00 0.00 0.09 57 1005.6
20260905210008 76 248 0.0 0.0 0.00 0.00 0.09 57 1005.6
20260905205557 76 263 0.0 0.0 0.00 0.00 0.09 56 1005.5
20260905205100 76 257 0.0 0.0 0.00 0.00 0.09 57 1005.5
20260905204611 77 251 0.0 0.0 0.00 0.00 0.09 59 1005.5
20260905204002 77 251 0.0 0.0 0.00 0.00 0.09 58 1005.4
20260905203504 76 251 0.0 0.0 0.00 0.00 0.09 56 1005.4
20260905203100 76 251 0.0 0.0 0.00 0.00 0.09 58 1005.4
20260905202601 76 291 0.0 0.0 0.00 0.00 0.09 60 1005.5
20260905202105 76 291 0.0 0.0 0.00 0.00 0.09 57 1005.5
20260905201502 76 291 0.0 0.0 0.00 0.00 0.09 61 1005.5
20260905201055 76 291 0.0 0.0 0.00 0.00 0.09 60 1005.6
20260905200601 76 291 0.0 0.0 0.00 0.00 0.09 61 1005.6
20260905200108 76 291 0.0 0.0 0.00 0.00 0.09 62 1005.6
20260905195605 76 291 0.0 0.0 0.00 0.00 0.09 61 1005.8
20260905195004 77 291 0.0 0.0 0.00 0.00 0.09 59 1005.8
20260905194506 77 291 0.0 0.0 0.00 0.00 0.09 60 1005.8
20260905194008 77 291 0.0 0.0 0.00 0.00 0.09 57 1005.9
20260905193601 78 291 0.0 0.0 0.00 0.00 0.09 54 1005.9
20260905193104 78 291 0.0 0.0 0.00 0.00 0.09 53 1005.9
20260905192553 77 291 0.0 0.0 0.00 0.00 0.08 54 1005.9
20260905192102 77 291 0.0 0.0 0.00 0.00 0.08 53 1005.9
20260905191500 77 320 0.0 0.0 0.00 0.00 0.08 55 1005.9
20260905191011 77 320 0.0 0.0 0.00 0.00 0.08 56 1006.1
20260905190513 77 299 0.0 0.0 0.00 0.00 0.08 56 1006.1
20260905190001 77 299 0.0 0.0 0.00 0.00 0.08 55 1006.1
20260905185553 77 299 0.0 0.0 0.00 0.00 0.08 55 1006.2
20260905185057 78 299 0.0 0.0 0.00 0.00 0.08 54 1006.2
20260905184604 78 299 0.0 0.0 0.00 0.00 0.08 52 1006.2
20260905184104 78 299 0.0 0.0 0.00 0.00 0.08 52 1006.2
20260905183552 78 299 0.0 0.0 0.00 0.00 0.08 54 1006.2
20260905183058 78 298 0.0 0.0 0.00 0.00 0.08 54 1006.2
20260905182558 77 299 0.0 0.0 0.00 0.00 0.08 53 1006.3
20260905182101 77 299 0.0 0.0 0.00 0.00 0.08 54 1006.3
20260905181607 77 298 0.0 0.0 0.00 0.00 0.08 54 1006.3
20260905181003 78 298 0.0 0.0 0.00 0.00 0.08 53 1006.3
20260905180504 78 294 0.0 0.0 0.00 0.00 0.08 52 1006.3
20260905180008 78 294 0.0 0.0 0.00 0.00 0.08 51 1006.3
20260905175602 78 294 0.0 0.0 0.00 0.00 0.08 52 1006.4
20260905175105 77 294 0.0 0.0 0.00 0.00 0.07 54 1006.4
20260905174504 77 280 0.0 0.0 0.00 0.00 0.07 54 1006.4
20260905174005 77 280 0.0 0.0 0.00 0.00 0.07 53 1006.6
20260905173509 77 294 0.0 0.0 0.00 0.00 0.07 55 1006.6
20260905173101 77 294 0.0 0.0 0.00 0.00 0.07 55 1006.6
20260905172605 77 311 0.0 0.0 0.00 0.00 0.07 58 1006.6
20260905172004 77 311 0.0 0.0 0.00 0.00 0.07 57 1006.6
20260905171512 77 311 0.0 0.0 0.00 0.00 0.07 55 1006.6
20260905171102 77 311 0.0 0.0 0.00 0.00 0.07 56 1006.8
20260905170604 77 311 0.0 0.0 0.00 0.00 0.07 56 1006.8
20260905170117 77 311 0.0 0.0 0.00 0.00 0.07 53 1006.8
20260905165507 77 298 0.0 0.0 0.00 0.00 0.07 52 1006.8
20260905165058 77 309 0.0 0.0 0.00 0.00 0.07 54 1006.8
20260905164601 77 312 0.0 0.0 0.00 0.00 0.07 54 1006.8
20260905164105 77 308 0.0 0.0 0.00 0.00 0.07 55 1006.9
20260905163502 77 291 0.0 0.0 0.00 0.00 0.07 56 1006.9
20260905163055 77 289 0.0 0.0 0.00 0.00 0.07 56 1006.9
20260905162601 77 261 0.0 0.0 0.00 0.00 0.07 55 1007.1
20260905162103 77 298 0.0 0.0 0.00 0.00 0.07 58 1007.1
20260905161605 77 299 0.0 0.0 0.00 0.00 0.07 61 1007.1
20260905161003 76 299 0.0 0.0 0.00 0.00 0.06 61 1007.3
20260905160506 76 316 0.0 0.0 0.00 0.00 0.06 62 1007.3
20260905160027 76 318 0.0 0.0 0.00 0.00 0.06 62 1007.3
20260905155513 76 318 0.0 0.0 0.00 0.00 0.06 63 1007.3
20260905155106 76 316 0.0 0.0 0.00 0.00 0.06 63 1007.3
20260905154503 75 318 0.0 0.0 0.00 0.00 0.06 65 1007.3
20260905154005 75 318 0.0 0.0 0.00 0.00 0.06 64 1007.4
20260905153600 75 318 0.0 0.0 0.00 0.00 0.06 66 1007.4
20260905153002 75 318 0.0 0.0 0.00 0.00 0.06 64 1007.4
20260905152507 75 316 0.0 0.0 0.00 0.00 0.06 65 1007.3
20260905152009 74 316 0.0 0.0 0.00 0.00 0.06 67 1007.3
20260905151603 74 318 0.0 0.0 0.00 0.00 0.06 66 1007.3
20260905151106 74 318 0.0 0.0 0.00 0.00 0.06 65 1007.1
20260905150502 74 288 0.0 0.0 0.00 0.00 0.06 65 1007.1
20260905150007 74 288 0.0 0.0 0.00 0.00 0.06 65 1007.1
20260905145508 73 335 0.0 0.0 0.00 0.00 0.06 67 1006.9
20260905145102 73 298 0.0 0.0 0.00 0.00 0.06 68 1006.9
20260905144606 73 298 0.0 0.0 0.00 0.00 0.06 69 1006.9
20260905144002 72 301 0.0 0.0 0.00 0.00 0.05 69 1006.9
20260905143505 72 287 0.0 0.0 0.00 0.00 0.05 71 1006.9
20260905143100 72 253 0.0 0.0 0.00 0.00 0.05 74 1006.9
20260905142603 72 291 0.0 0.0 0.00 0.00 0.05 74 1007.1
20260905142004 71 291 0.0 0.0 0.00 0.00 0.05 75 1007.1
20260905141506 71 291 0.0 0.0 0.00 0.00 0.05 75 1007.1
20260905141104 71 291 0.0 0.0 0.00 0.00 0.05 75 1007.1
20260905140604 71 291 0.0 0.0 0.00 0.00 0.05 74 1007.1
20260905140005 71 291 0.0 0.0 0.00 0.00 0.05 75 1007.1
20260905135507 71 291 0.0 0.0 0.00 0.00 0.05 75 1007.0
20260905135100 71 291 0.0 0.0 0.00 0.00 0.05 75 1007.0
20260905134608 71 291 0.0 0.0 0.00 0.00 0.05 76 1007.0
20260905134105 70 291 0.0 0.0 0.00 0.00 0.05 77 1006.9
20260905133504 70 291 0.0 0.0 0.00 0.00 0.05 77 1006.9
20260905133008 70 291 0.0 0.0 0.00 0.00 0.05 79 1006.9
20260905132511 70 291 0.0 0.0 0.00 0.00 0.05 80 1006.8
20260905132017 70 291 0.0 0.0 0.00 0.00 0.05 81 1006.8
20260905131501 70 291 0.0 0.0 0.00 0.00 0.05 81 1006.8
20260905131055 70 291 0.0 0.0 0.00 0.00 0.05 82 1006.7
20260905130558 70 291 0.0 0.0 0.00 0.00 0.05 82 1006.7
20260905130101 70 291 0.0 0.0 0.00 0.00 0.05 82 1006.7
20260905125604 70 291 0.0 0.0 0.00 0.00 0.05 82 1006.8
20260905125055 70 291 0.0 0.0 0.00 0.00 0.05 82 1006.8
20260905124603 70 291 0.0 0.0 0.00 0.00 0.05 81 1006.8
20260905124002 69 291 0.0 0.0 0.00 0.00 0.05 80 1006.9
20260905123600 69 291 0.0 0.0 0.00 0.00 0.05 80 1006.9
20260905123105 69 291 0.0 0.0 0.00 0.00 0.05 81 1006.9
20260905122501 69 291 0.0 0.0 0.00 0.00 0.04 82 1006.8
20260905122004 69 291 0.0 0.0 0.00 0.00 0.04 83 1006.8
20260905121558 69 291 0.0 0.0 0.00 0.00 0.04 83 1006.8
20260905121109 69 291 0.0 0.0 0.00 0.00 0.04 82 1006.8
20260905120503 69 291 0.0 0.0 0.00 0.00 0.04 82 1006.8
20260905120006 69 291 0.0 0.0 0.00 0.00 0.04 82 1006.8
20260905115603 69 291 0.0 0.0 0.00 0.00 0.04 82 1006.7
20260905115103 69 291 0.0 0.0 0.00 0.00 0.04 82 1006.7
20260905114605 69 291 0.0 0.0 0.00 0.00 0.04 83 1006.7
20260905114003 69 291 0.0 0.0 0.00 0.00 0.04 84 1006.5
20260905113600 69 291 0.0 0.0 0.00 0.00 0.04 85 1006.5
20260905113106 69 291 0.0 0.0 0.00 0.00 0.04 87 1006.5
20260905112505 69 291 0.0 0.0 0.00 0.00 0.04 88 1006.2
20260905112059 69 291 0.0 0.0 0.00 0.00 0.04 89 1006.2
20260905111647 69 291 0.0 0.0 0.00 0.00 0.04 89 1006.2
20260905111002 69 291 0.0 0.0 0.00 0.00 0.04 89 1006.3
20260905110601 69 291 0.0 0.0 0.00 0.00 0.04 89 1006.3
20260905110104 69 291 0.0 0.0 0.00 0.00 0.04 89 1006.3
20260905105501 69 291 0.0 0.0 0.00 0.00 0.04 89 1006.0
20260905105005 69 291 0.0 0.0 0.00 0.00 0.04 89 1006.0
20260905104517 69 291 0.0 0.0 0.00 0.00 0.03 90 1006.0
20260905104101 69 291 0.0 0.0 0.00 0.00 0.03 90 1005.9
20260905103606 69 291 0.0 0.0 0.00 0.00 0.03 90 1005.9
20260905103004 69 291 0.0 0.0 0.00 0.00 0.03 90 1005.9
20260905102504 69 291 0.0 0.0 0.00 0.00 0.03 90 1005.8
20260905102058 69 291 0.0 0.0 0.00 0.00 0.03 90 1005.8
20260905101602 69 291 0.0 0.0 0.00 0.00 0.03 91 1005.8
20260905101106 69 291 0.0 0.0 0.00 0.00 0.03 91 1005.7
20260905100501 69 291 0.0 0.0 0.00 0.00 0.03 91 1005.7
20260905100107 69 291 0.0 0.0 0.00 0.00 0.03 91 1005.7
20260905095600 69 291 0.0 0.0 0.00 0.00 0.03 91 1005.7
20260905095006 69 291 0.0 0.0 0.00 0.00 0.03 92 1005.7
20260905094600 69 291 0.0 0.0 0.00 0.00 0.03 92 1005.7
20260905094108 69 291 0.0 0.0 0.00 0.00 0.03 93 1005.7
20260905093507 69 291 0.0 0.0 0.00 0.00 0.03 94 1005.7
20260905093007 69 291 0.0 0.0 0.00 0.00 0.03 94 1005.7
20260905092558 70 291 0.0 0.0 0.00 0.00 0.03 94 1005.8
20260905092101 70 291 0.0 0.0 0.00 0.00 0.03 94 1005.8
20260905091610 70 291 0.0 0.0 0.00 0.00 0.03 95 1005.8
20260905091002 70 291 0.0 0.0 0.00 0.00 0.03 95 1005.7
20260905090505 70 291 0.0 0.0 0.00 0.00 0.03 95 1005.7
20260905090100 70 291 0.0 0.0 0.00 0.00 0.03 95 1005.7
20260905085602 70 291 0.0 0.0 0.00 0.00 0.03 95 1005.6
20260905085105 70 291 0.0 0.0 0.00 0.00 0.03 95 1005.6
20260905084501 70 291 0.0 0.0 0.00 0.00 0.03 95 1005.6
20260905084008 70 291 0.0 0.0 0.00 0.00 0.03 95 1005.4
20260905083559 70 291 0.0 0.0 0.00 0.00 0.03 95 1005.4
20260905083101 70 291 0.0 0.0 0.00 0.00 0.03 95 1005.4
20260905082604 70 291 0.0 0.0 0.00 0.00 0.03 95 1005.6
20260905082006 70 291 0.0 0.0 0.00 0.00 0.03 95 1005.6
20260905081605 70 291 0.0 0.0 0.00 0.00 0.02 95 1005.6
20260905081000 70 291 0.0 0.0 0.00 0.00 0.02 95 1005.6
20260905080503 70 291 0.0 0.0 0.00 0.00 0.02 94 1005.6
20260905075601 70 291 0.0 0.0 0.00 0.00 0.02 94 1005.6
20260905075103 70 291 0.0 0.0 0.00 0.00 0.02 94 1005.6
20260905074502 70 291 0.0 0.0 0.00 0.00 0.02 94 1005.6
20260905074008 70 291 0.0 0.0 0.00 0.00 0.02 94 1005.6
20260905073509 70 291 0.0 0.0 0.00 0.00 0.02 94 1005.6
20260905073016 70 291 0.0 0.0 0.00 0.00 0.02 94 1005.6
20260905072605 70 291 0.0 0.0 0.00 0.00 0.02 94 1005.7
20260905072002 70 291 0.0 0.0 0.00 0.00 0.02 93 1005.7
20260905071509 71 291 0.0 0.0 0.00 0.00 0.02 93 1005.7
20260905071009 71 291 0.0 0.0 0.00 0.00 0.02 93 1005.6
20260905070512 71 291 0.0 0.0 0.00 0.00 0.02 93 1005.6
20260905070108 71 291 0.0 0.0 0.00 0.00 0.02 93 1005.6
20260905065555 71 291 0.0 0.0 0.00 0.00 0.02 92 1005.7
20260905065104 71 291 0.0 0.0 0.00 0.00 0.01 92 1005.7
20260905064601 71 291 0.0 0.0 0.00 0.00 0.01 92 1005.7
20260905064106 71 291 0.0 0.0 0.00 0.00 0.01 92 1005.7
20260905063504 71 291 0.0 0.0 0.00 0.00 0.01 92 1005.7
20260905063103 71 291 0.0 0.0 0.00 0.00 0.01 91 1005.7
20260905062605 72 291 0.0 0.0 0.00 0.00 0.01 91 1005.8
20260905062002 72 291 0.0 0.0 0.00 0.00 0.01 91 1005.8
20260905061505 72 291 0.0 0.0 0.00 0.00 0.01 91 1005.8
20260905061007 72 291 0.0 0.0 0.00 0.00 0.01 91 1006.0
20260905060601 72 291 0.0 0.0 0.00 0.00 0.01 91 1006.0
20260905060105 72 291 0.0 0.0 0.00 0.00 0.01 91 1006.0
20260905055501 72 291 0.0 0.0 0.00 0.00 0.01 91 1006.0
20260905055007 72 291 0.0 0.0 0.00 0.00 0.01 91 1006.0
20260905054601 72 291 0.0 0.0 0.00 0.00 0.01 91 1006.0
20260905054104 72 291 0.0 0.0 0.00 0.00 0.01 91 1006.1
20260905053501 72 291 0.0 0.0 0.00 0.00 0.01 91 1006.1
20260905053101 72 291 0.0 0.0 0.00 0.00 0.01 92 1006.1
20260905052558 72 291 0.0 0.0 0.00 0.00 0.01 92 1006.2
20260905052101 73 291 0.0 0.0 0.00 0.00 0.01 92 1006.2
20260905051605 73 291 0.0 0.0 0.00 0.00 0.01 92 1006.2
20260905051052 73 291 0.0 0.0 0.00 0.00 0.01 92 1006.2
20260905050555 73 291 0.0 0.0 0.00 0.00 0.01 93 1006.2
20260905050058 73 291 0.0 0.0 0.00 0.00 0.01 94 1006.2
20260905045602 73 291 0.0 0.0 0.00 0.00 0.01 94 1006.4
20260905045053 74 291 0.0 0.0 0.00 0.00 0.01 94 1006.4
20260905044558 74 291 0.0 0.0 0.00 0.00 0.01 94 1006.4
20260905044056 74 291 0.0 0.0 0.00 0.00 0.01 94 1006.5
20260905043559 74 291 0.0 0.0 0.00 0.00 0.00 94 1006.5
20260905043103 74 291 0.0 0.0 0.00 0.00 0.00 94 1006.5
20260905042551 74 291 0.0 0.0 0.00 0.00 0.00 93 1006.5
20260905042054 74 291 0.0 0.0 0.00 0.00 0.00 93 1006.5
20260905041558 74 291 0.0 0.0 0.00 0.00 0.00 93 1006.5
20260905041101 74 291 0.0 0.0 0.00 0.00 0.00 93 1006.5
20260905040551 74 291 0.0 0.0 0.00 0.00 0.00 93 1006.5
20260905040051 74 291 0.0 0.0 0.00 0.00 0.00 93 1006.5
20260905035554 74 291 0.0 0.0 0.00 0.00 0.16 93 1006.4
20260905035057 74 291 0.0 0.0 0.00 0.00 0.16 93 1006.4
20260905034552 74 291 0.0 0.0 0.00 0.00 0.16 93 1006.4
20260905034057 74 291 0.0 0.0 0.00 0.00 0.16 93 1006.3
20260905033603 74 291 0.0 0.0 0.00 0.00 0.16 93 1006.3
20260905033003 74 291 0.0 0.0 0.00 0.00 0.16 94 1006.3
20260905032506 74 291 0.0 0.0 0.00 0.00 0.15 93 1006.4
20260905032009 74 291 0.0 0.0 0.00 0.00 0.15 93 1006.4
20260905031604 74 291 0.0 0.0 0.00 0.00 0.15 93 1006.4
20260905031104 74 291 0.0 0.0 0.00 0.00 0.15 93 1006.4
20260905030501 74 291 0.0 0.0 0.00 0.00 0.15 93 1006.4
20260905030005 74 291 0.0 0.0 0.00 0.00 0.15 93 1006.4
20260905025507 74 291 0.0 0.0 0.00 0.00 0.15 93 1006.3
20260905025101 74 291 0.0 0.0 0.00 0.00 0.15 93 1006.3
20260905024550 74 291 0.0 0.0 0.00 0.00 0.15 93 1006.3
20260905024103 74 291 0.0 0.0 0.00 0.00 0.15 93 1006.3
20260905023604 74 291 0.0 0.0 0.00 0.00 0.15 93 1006.3
20260905023002 74 291 0.0 0.0 0.00 0.00 0.15 92 1006.3
20260905022504 74 291 0.0 0.0 0.00 0.00 0.15 92 1006.3
20260905022007 74 291 0.0 0.0 0.00 0.00 0.15 92 1006.3
20260905021601 74 291 0.0 0.0 0.00 0.00 0.15 92 1006.3
20260905021105 74 291 0.0 0.0 0.00 0.00 0.15 92 1006.3